#timestamp,LO_Frequency,Hit,StdDev 
1507309215.7,286047010.1,Y
1507309235.5,286047011.6,P
1507309255.4,286047013.2,N
1507309275.2,286047012.9,N
1507309295.0,286047013.7,N
1507309295.9,286047013.7,N
1507309315.8,286047011.3,N
1507309335.6,286047011.4,N
1507309355.4,286047015.4,Y
1507309375.3,286047003.7,P
1507309395.1,286047006.0,N
1507309396.0,286047006.0,N
1507309415.8,286047005.7,N
1507309435.7,286047005.2,N
1507309455.5,286047007.8,Y
1507309475.3,286047000.7,P
1507309495.2,286047002.2,N
1507309515.9,286047002.6,N
1507309535.7,286047002.2,N
1507309555.6,286047000.3,N
1507309575.4,286046996.5,N
1507309595.2,286047001.0,N
1507309615.0,286046999.0,N
1507309616.0,286046999.0,N
1507309635.8,286046995.4,N
1507309655.6,286047000.4,N
1507309675.4,286047000.8,N
1507309695.3,286046999.4,N
1507309715.1,286046998.2,N
1507309735.8,286046994.9,N
1507309755.7,286046997.9,N
1507309775.5,286046999.3,N
1507309795.3,286047002.3,N
1507309815.2,286047002.1,N
1507309835.9,286046999.9,N
1507309855.7,286046999.8,N
1507309875.6,286046996.5,N
1507309895.4,286046997.9,N
1507309915.2,286046994.1,N
1507309935.1,286046990.5,Y
1507309936.0,286046990.5,P
1507309955.8,286046993.1,N
1507309975.6,286046991.3,N
1507309995.4,286046990.3,N
1507310015.3,286046988.9,Y
1507310035.1,286046996.8,P
1507310055.9,286046997.2,N
1507310075.7,286046995.9,N
1507310095.5,286046993.6,Y
1507310115.4,286046997.8,P
1507310135.2,286046999.1,N
1507310155.0,286046997.8,N
1507310155.9,286046997.8,N
1507310175.7,286046997.7,N
1507310195.6,286046995.1,Y
1507310215.4,286046996.6,P
1507310235.2,286046997.0,P
1507310255.1,286047000.9,N
1507310256.0,286047000.9,N
1507310275.8,286047001.0,N
1507310295.6,286047001.1,N
1507310315.5,286046996.7,N
1507310335.3,286046998.7,N
1507310355.1,286046999.0,N
1507310375.9,286046998.4,N
1507310395.7,286047000.4,N
1507310415.5,286047001.6,N
1507310435.4,286047000.1,N
1507310455.2,286047002.1,N
1507310475.0,286047000.2,N
1507310475.9,286047000.2,N
1507310495.8,286047001.0,N
1507310515.6,286047000.7,N
1507310535.4,286046999.8,N
1507310555.2,286047002.1,N
1507310575.1,286047004.0,N
1507310576.0,286047004.0,N
1507310595.8,286047001.4,N
1507310615.6,286047004.2,N
1507310635.5,286047001.7,N
1507310655.3,286047003.8,N
1507310675.1,286047004.2,N
1507310695.9,286047004.0,N
1507310715.7,286047004.0,N
1507310735.5,286047005.3,N
1507310755.4,286047005.6,N
1507310775.2,286047005.1,N
1507310795.0,286047005.7,N
1507310795.9,286047005.7,N
1507310815.8,286047008.5,Y
1507310835.6,286047004.6,P
1507310855.4,286047005.6,P
1507310875.3,286047004.1,N
1507310895.1,286047003.9,N
1507310896.0,286047003.9,Y
1507310915.8,286046999.4,P
1507310935.7,286046998.8,N
1507310955.5,286046999.4,N
1507310975.3,286047001.1,N
1507310995.2,286046999.3,N
1507311015.9,286047000.6,N
1507311035.7,286047001.1,N
1507311055.6,286046998.2,N
1507311075.4,286046998.6,N
1507311095.2,286046996.6,N
1507311115.0,286046999.4,N
1507311116.0,286046999.4,N
1507311135.8,286047000.6,N
1507311155.6,286046998.3,N
1507311175.4,286046997.2,N
1507311195.3,286046999.2,N
1507311215.1,286046996.7,N
1507311235.8,286046996.9,N
1507311255.7,286046997.4,N
1507311275.5,286046999.2,N
1507311295.3,286046995.5,N
1507311315.2,286047001.3,N
1507311335.9,286047006.0,Y
1507311355.7,286047009.9,P
1507311375.6,286047014.9,N
1507311395.4,286047021.9,P
1507311415.2,286047026.5,Y
1507311435.1,286047016.6,P
1507311436.0,286047016.6,P
1507311455.8,286047013.8,P
1507311475.6,286047013.8,Y
1507311495.5,286046997.2,P
1507311515.3,286046997.4,N
1507311535.1,286046992.3,N
1507311555.9,286046993.9,N
1507311575.7,286046991.7,N
1507311595.5,286046992.9,N
1507311615.4,286046991.6,N
1507311635.2,286046985.3,N
1507311655.0,286046987.5,N
1507311655.9,286046987.5,N
1507311675.8,286046985.3,N
1507311695.6,286046985.5,N
1507311715.4,286046985.5,N
1507311735.3,286046985.4,N
1507311755.1,286046984.3,N
1507311756.0,286046984.3,N
1507311775.8,286046983.7,N
1507311795.6,286046987.7,N
1507311815.5,286046986.0,N
1507311835.3,286046988.6,N
1507311855.1,286046991.1,N
1507311875.9,286046992.9,N
1507311895.7,286046994.0,N
1507311915.5,286046995.8,N
1507311935.4,286046990.4,N
1507311955.2,286046992.2,N
1507311975.0,286046992.0,N
1507311975.9,286046992.0,N
1507311995.8,286046993.4,N
1507312015.6,286046998.0,N
1507312035.4,286046994.0,N
1507312055.3,286046988.5,N
1507312075.1,286046988.1,Y
1507312076.0,286046988.1,P
1507312095.8,286046997.8,N
1507312115.7,286046994.3,N
1507312135.5,286046991.2,N
1507312155.3,286046990.4,N
1507312175.2,286046988.8,Y
1507312195.9,286046993.5,P
1507312215.7,286046991.9,P
1507312235.6,286046990.6,P
1507312255.4,286046992.1,Y
1507312275.2,286047001.0,P
1507312295.1,286047000.1,N
1507312296.0,286047000.1,N
1507312315.8,286047002.3,N
1507312335.6,286047002.1,N
1507312355.5,286046999.9,N
1507312375.3,286046999.9,N
1507312395.1,286047002.6,N
1507312415.8,286047002.5,N
1507312435.7,286046998.1,N
1507312455.5,286047000.7,N
1507312475.3,286047000.3,N
1507312495.2,286047002.1,N
1507312515.9,286046999.9,N
1507312535.7,286047000.8,N
1507312555.6,286046999.0,N
1507312575.4,286046998.8,N
1507312595.2,286046997.5,N
1507312615.1,286046998.3,N
1507312616.0,286046998.3,N
1507312635.8,286046998.7,N
1507312655.6,286046995.0,N
1507312675.5,286046997.1,N
1507312695.3,286046995.0,N
1507312715.1,286046999.3,N
1507312735.8,286046998.4,N
1507312755.7,286046998.5,N
1507312775.5,286046998.8,N
1507312795.3,286046999.5,N
